This demonstration page uses our WeatherBlox Daily Observations layout. Learn more.

Left ArrowRight Arrow

40.92945, -100.16068

Hourly Observations for April 7, 2016

Temp ( °F °C ) Dew Point ( °F °C ) Humidity (%) Winds ( mph kmh ) Pressure ( in mb ) Visibility ( mi km ) Precip ( " mm )
12:15 am 00:15 Cloudy 55 12.9 34 1 44 44 N 12 19 29.94 1014 10 16 N/A
12:35 am 00:35 Cloudy 54 12.3 34 1.1 47 47 N 12 19 30.00 1016 10 16 N/A
12:55 am 00:55 Cloudy 55 12.5 34 1 46 46 N 12 19 30.00 1016 10 16 N/A
1:35 am 01:35 Mostly Cloudy 53 11.9 33 0.8 47 47 NNW 15 24 30.03 1017 10 16 N/A
1:55 am 01:55 Partly Cloudy 53 11.5 32 0 45 45 N 16 26 30.03 1017 10 16 N/A
2:15 am 02:15 Partly Cloudy 51 10.6 32 0 48 48 NNW 15 24 30.03 1017 10 16 N/A
2:35 am 02:35 Partly Cloudy 51 10.4 32 0 49 49 NNW 13 20 30.00 1016 10 16 N/A
2:55 am 02:55 Partly Cloudy 50 10 32 0 50 50 NNW 14 22 30.06 1018 10 16 N/A
3:15 am 03:15 Partly Cloudy 49 9.5 32 0 52 52 NW 13 20 30.06 1018 10 16 N/A
3:35 am 03:35 Partly Cloudy 49 9.4 32 0.2 53 53 NW 16 26 30.03 1017 10 16 N/A
3:55 am 03:55 Clear 49 9.5 32 0.1 52 52 NW 15 24 30.06 1018 10 16 N/A
4:15 am 04:15 Clear 48 9 33 0.3 55 55 WNW 16 26 30.06 1018 10 16 N/A
4:35 am 04:35 Mostly Cloudy 48 9.1 33 0.4 55 55 WNW 17 28 30.03 1017 10 16 N/A
4:55 am 04:55 Cloudy 50 9.8 32 0 51 51 NW 20 31 30.06 1018 10 16 N/A
5:15 am 05:15 Cloudy 49 9.7 32 0 51 51 WNW 17 28 30.06 1018 10 16 N/A
5:35 am 05:35 Cloudy 49 9.6 32 0 52 52 WNW 16 26 30.06 1018 10 16 N/A
5:55 am 05:55 Partly Cloudy 49 9.5 31 -0.4 50 50 WNW 17 28 30.06 1018 10 16 N/A
6:15 am 06:15 Mostly Cloudy 49 9.6 32 -0.2 51 51 WNW 20 31 30.06 1018 10 16 N/A
6:35 am 06:35 Partly Cloudy 49 9.6 32 0 52 52 WNW 20 31 30.06 1018 10 16 N/A
6:55 am 06:55 Clear 49 9.4 32 0 52 52 WNW 17 28 30.06 1018 10 16 N/A
7:15 am 07:15 Sunny 49 9.4 32 -0.1 52 52 WNW 18 30 30.06 1018 10 16 N/A
7:35 am 07:35 Partly Cloudy 51 10.6 30 -1.1 44 44 WNW 24 39 30.03 1017 10 16 N/A
7:55 am 07:55 Partly Cloudy 51 10.3 31 -0.6 47 47 NW 20 31 30.03 1017 10 16 N/A
8:15 am 08:15 Sunny 51 10.5 32 -0.1 48 48 NW 20 31 30.03 1017 10 16 N/A
8:35 am 08:35 Sunny 52 11.1 32 -0.1 46 46 NW 20 31 30.03 1017 10 16 N/A
8:55 am 08:55 Mostly Cloudy 52 11 32 0 47 47 NW 23 37 30.06 1018 10 16 N/A
9:15 am 09:15 Cloudy 54 12.4 31 -0.4 42 42 NW 33 54 30.06 1018 10 16 N/A
9:35 am 09:35 Mostly Cloudy 55 13 28 -2.2 35 35 NNW 32 52 30.06 1018 7 11 N/A
9:55 am 09:55 Partly Cloudy 56 13.1 28 -2.1 35 35 NW 32 52 30.06 1018 7 11 N/A
10:15 am 10:15 Sunny 56 13.4 27 -2.9 32 32 NNW 30 48 30.06 1018 10 16 N/A
10:35 am 10:35 Partly Cloudy 57 14 26 -3.6 30 30 NNW 38 61 30.09 1019 7 11 N/A
10:55 am 10:55 Mostly Cloudy 57 13.7 25 -4 29 29 NNW 29 46 30.09 1019 10 16 N/A
11:15 am 11:15 Mostly Cloudy 57 13.9 23 -4.8 27 27 NNW 33 54 30.09 1019 7 11 N/A
11:35 am 11:35 Partly Cloudy 59 14.8 22 -5.3 25 25 NNW 35 56 30.06 1018 10 16 N/A
11:55 am 11:55 Sunny 60 15.3 23 -4.9 25 25 NNW 36 57 30.06 1018 10 16 N/A
12:15 pm 12:15 Sunny 60 15.6 20 -6.7 21 21 NNW 36 57 30.06 1018 10 16 N/A
12:35 pm 12:35 Partly Cloudy 60 15.6 19 -7 21 21 NNW 46 74 30.06 1018 7 11 N/A
12:55 pm 12:55 Sunny 61 15.9 19 -7.2 20 20 NNW 43 69 30.06 1018 7 11 N/A
1:15 pm 13:15 Hazy 61 15.9 16 -8.9 17 17 N 43 69 30.06 1018 5 8 N/A
1:35 pm 13:35 Sunny 61 16 16 -8.8 17 17 NNW 43 69 30.06 1018 10 16 N/A
1:55 pm 13:55 Sunny 61 16.3 18 -7.8 18 18 NNW 36 57 30.03 1017 10 16 N/A
2:15 pm 14:15 Sunny 61 16 17 -8.2 18 18 NNW 39 63 30.06 1018 10 16 N/A
2:35 pm 14:35 Partly Cloudy 62 16.4 19 -7.4 19 19 NNW 38 61 30.06 1018 10 16 N/A
2:55 pm 14:55 Partly Cloudy 61 16.2 19 -7.3 19 19 NNW 39 63 30.06 1018 10 16 N/A
3:15 pm 15:15 Partly Cloudy 61 15.9 18 -7.7 19 19 NNW 35 56 30.06 1018 10 16 N/A
3:35 pm 15:35 Partly Cloudy 61 16 17 -8.2 18 18 NNW 35 56 30.06 1018 10 16 N/A
3:55 pm 15:55 Partly Cloudy 61 16.3 19 -7.3 19 19 NNW 40 65 30.03 1017 10 16 N/A
4:15 pm 16:15 Partly Cloudy 61 16.1 17 -8.1 18 18 NNW 40 65 30.06 1018 10 16 N/A
4:35 pm 16:35 Partly Cloudy 61 16.3 18 -8 18 18 N 36 57 30.06 1018 10 16 N/A
4:55 pm 16:55 Partly Cloudy 61 16 18 -7.8 19 19 NNW 36 57 30.06 1018 10 16 N/A
5:15 pm 17:15 Partly Cloudy 59 15.1 16 -8.8 18 18 NNW 30 48 30.06 1018 10 16 N/A
5:35 pm 17:35 Sunny 59 15.2 18 -8 20 20 NNW 24 39 30.06 1018 10 16 N/A
5:55 pm 17:55 Sunny 60 15.4 17 -8.2 19 19 NNW 30 48 30.06 1018 10 16 N/A
6:15 pm 18:15 Sunny 59 15.1 17 -8.2 19 19 NNW 29 46 30.06 1018 10 16 N/A
6:35 pm 18:35 Sunny 59 14.8 17 -8.6 19 19 N 30 48 30.06 1018 10 16 N/A
6:55 pm 18:55 Sunny 58 14.5 17 -8.3 20 20 NNW 25 41 30.06 1018 10 16 N/A
7:15 pm 19:15 Sunny 57 14 16 -8.8 20 20 NNW 26 43 30.09 1019 10 16 N/A
7:35 pm 19:35 Sunny 56 13.5 16 -8.9 20 20 NNW 20 31 30.09 1019 10 16 N/A
7:55 pm 19:55 Sunny 54 12.3 17 -8.4 23 23 N 15 24 30.09 1019 10 16 N/A
8:15 pm 20:15 Clear 52 11.1 17 -8.2 25 25 N 13 20 30.09 1019 10 16 N/A
8:35 pm 20:35 Clear 48 9.1 18 -8 29 29 NNW 10 17 30.12 1020 10 16 N/A
8:55 pm 20:55 Clear 46 7.6 17 -8.2 32 32 N 9 15 30.15 1021 10 16 N/A
9:15 pm 21:15 Clear 45 7 18 -8 34 34 N 10 17 30.18 1022 10 16 N/A
9:35 pm 21:35 Clear 42 5.5 16 -8.7 36 36 N 7 11 30.18 1022 10 16 N/A
9:55 pm 21:55 Clear 43 6.3 17 -8.6 34 34 NNE 10 17 30.18 1022 10 16 N/A
10:15 pm 22:15 Clear 38 3.1 16 -9 41 41 W 6 9 30.21 1023 10 16 N/A
10:35 pm 22:35 Clear 41 5.2 17 -8.2 38 38 W 9 15 30.21 1023 10 16 N/A
10:55 pm 22:55 Clear 39 3.8 18 -7.7 43 43 WNW 9 15 30.24 1024 10 16 N/A
11:15 pm 23:15 Clear 38 3.6 19 -7.3 45 45 WNW 10 17 30.24 1024 10 16 N/A
11:35 pm 23:35 Clear 38 3.6 19 -7.3 45 45 WNW 9 15 30.21 1023 10 16 N/A
11:55 pm 23:55 Clear 36 2 19 -7.3 51 51 W 10 17 30.21 1023 10 16 N/A

Powered by AerisWeather